Location: La Chapelle
(48.3135°N, 1.3085°W)
Time: 08:58:39
(UTC+00:00)

Meteor 2-4 Rocket - Pass Details

Date: 03 March 2021
Orbit: 799 x 908 km, 81.2° (Epoch: 12 April)

Event Time Altitude Azimuth Distance (km) Brightness Sun altitude
Rises 18:45:00 0° 351° (N) 3,484 7.0 -9.5°
Reaches altitude 10° 18:47:30 10° 356° (N) 2,556 6.3 -9.9°
Maximum altitude 18:53:13 54° 74° (ENE) 1,086 3.9 -10.9°
Drops below altitude 10° 18:58:59 10° 151° (SSE) 2,583 5.9 -11.8°
Sets 19:01:31 0° 156° (SSE) 3,523 6.6 -12.2°
